Location: Morisset
(33.1080°S, 151.4871°E)
Time: 09:10:25
(UTC+00:00)

Cosmos 2251 Rocket - Pass Details

Date: 29 October 2020
Orbit: 766 x 791 km, 74.0° (Epoch: 27 November)

Event Time Altitude Azimuth Distance (km) Brightness Sun altitude
Rises 16:29:20 0° 196° (SSW) 3,305 7.1 -27.8°
Reaches altitude 10° 16:31:44 10° 194° (SSW) 2,373 6.3 -27.4°
Maximum altitude 16:37:09 81° 107° (ESE) 810 3.5 -26.5°
Enters shadow 16:38:29 53° 29° (NNE) 976 3.9 -26.3°
